Location: Unspecified
(0.0000°N, 0.0000°E)
Time: 23:39:55
(UTC+00:00)

Hubble Space Telescope - Visible Passes

Search period start: 25 April 2019 00:00
Search period end: 05 May 2019 00:00
Orbit: 537 x 540 km, 28.5° (Epoch: 25 April)

Date Brightness Start Highest point End Pass type
(mag) Time Alt. Az. Time Alt. Az. Time Alt. Az.
30 Apr 3.1 19:03:31 10° S 19:03:53 11° SSE 19:03:53 11° SSE visible
01 May 2.6 18:51:54 10° S 18:54:20 15° SSE 18:54:39 15° SSE visible
02 May 2.2 18:40:46 10° SSW 18:43:53 20° SSE 18:45:33 16° ESE visible
03 May 1.8 18:29:51 10° SSW 18:33:25 28° SSE 18:36:34 12° E visible
03 May 3.3 20:10:39 10° WSW 20:12:00 19° W 20:12:00 19° W visible
04 May 1.3 18:19:03 10° SW 18:22:56 39° SSE 18:26:48 10° E visible
04 May 2.8 20:00:27 10° W 20:03:07 27° NW 20:03:07 27° NW visible
